• In Hungary
  • List of Countries
  • For 7 days
  • Water Temperature
  • Satellite Maps
  • Weather Map
  • News
  • Weather Widgets
  • user-avatar
    Login

    Hourly Weather Tamir

    Today, 21 January, Sunday

    Time Temperature Precipitation Wind Pressure Humidity
    00:00 -34°C° 0 mm 2 mps 687 mmHg 92%
    01:00 -35°C° 0 mm 2 mps 687 mmHg 92%
    02:00 -35°C° 0 mm 2 mps 687 mmHg 92%
    03:00 -32°C° 0 mm 1 mps 688 mmHg 92%
    04:00 -33°C° 0 mm 1 mps 688 mmHg 91%
    05:00 -33°C° 0 mm 1 mps 688 mmHg 92%
    06:00 -34°C° 0 mm 1 mps 688 mmHg 92%
    07:00 -35°C° 0 mm 1 mps 688 mmHg 92%
    08:00 -33°C° 0 mm 1 mps 689 mmHg 89%
    09:00 -32°C° 0 mm 1 mps 689 mmHg 85%
    10:00 -31°C° 0 mm 1 mps 689 mmHg 82%
    11:00 -34°C° 0 mm 2 mps 689 mmHg 80%
    12:00 -32°C° 0 mm 2 mps 689 mmHg 78%
    13:00 -31°C° 0 mm 2 mps 689 mmHg 77%
    14:00 -32°C° 0 mm 2 mps 689 mmHg 80%
    15:00 -34°C° 0 mm 2 mps 689 mmHg 82%
    16:00 -31°C° 0 mm 1 mps 689 mmHg 85%
    17:00 -32°C° 0 mm 1 mps 689 mmHg 87%
    18:00 -33°C° 0 mm 1 mps 689 mmHg 89%
    19:00 -34°C° 0 mm 1 mps 689 mmHg 92%
    20:00 -34°C° 0 mm 1 mps 689 mmHg 92%
    21:00 -34°C° 0 mm 1 mps 689 mmHg 92%
    22:00 -37°C° 0 mm 2 mps 689 mmHg 92%
    23:00 -37°C° 0 mm 2 mps 689 mmHg 92%

    Tomorrow, 22 January, Monday

    Time Temperature Precipitation Wind Pressure Humidity
    00:00 -37°C° 0 mm 2 mps 689 mmHg 92%
    01:00 -37°C° 0 mm 2 mps 689 mmHg 92%
    02:00 -37°C° 0 mm 2 mps 688 mmHg 92%
    03:00 -37°C° 0 mm 2 mps 688 mmHg 92%
    04:00 -37°C° 0 mm 2 mps 688 mmHg 92%
    05:00 -37°C° 0 mm 2 mps 687 mmHg 92%
    06:00 -37°C° 0 mm 2 mps 687 mmHg 92%
    07:00 -37°C° 0 mm 2 mps 687 mmHg 92%
    08:00 -36°C° 0 mm 2 mps 687 mmHg 90%
    09:00 -36°C° 0 mm 3 mps 686 mmHg 88%
    10:00 -35°C° 0 mm 3 mps 686 mmHg 86%
    11:00 -34°C° 0 mm 3 mps 686 mmHg 84%
    12:00 -33°C° 0 mm 3 mps 685 mmHg 82%
    13:00 -32°C° 0 mm 3 mps 685 mmHg 80%
    14:00 -32°C° 0 mm 3 mps 685 mmHg 82%
    15:00 -33°C° 0 mm 3 mps 685 mmHg 84%
    16:00 -33°C° 0 mm 3 mps 684 mmHg 86%
    17:00 -31°C° 0 mm 2 mps 684 mmHg 88%
    18:00 -32°C° 0 mm 2 mps 685 mmHg 89%
    19:00 -34°C° 0 mm 2 mps 685 mmHg 90%
    20:00 -34°C° 0 mm 2 mps 684 mmHg 90%
    21:00 -34°C° 0 mm 2 mps 684 mmHg 90%
    22:00 -34°C° 0 mm 2 mps 684 mmHg 89%
    23:00 -34°C° 0 mm 2 mps 684 mmHg 90%

    Day after tomorrow, 23 January, Tuesday

    Time Temperature Precipitation Wind Pressure Humidity
    00:00 -34°C° 0 mm 2 mps 684 mmHg 90%
    01:00 -34°C° 0 mm 2 mps 684 mmHg 90%
    02:00 -34°C° 0 mm 2 mps 684 mmHg 90%
    03:00 -34°C° 0 mm 2 mps 684 mmHg 90%
    04:00 -34°C° 0 mm 2 mps 684 mmHg 90%
    05:00 -34°C° 0 mm 2 mps 684 mmHg 91%
    06:00 -34°C° 0 mm 2 mps 684 mmHg 91%
    07:00 -34°C° 0 mm 2 mps 684 mmHg 91%
    08:00 -32°C° 0 mm 2 mps 684 mmHg 89%
    09:00 -31°C° 0 mm 2 mps 684 mmHg 87%
    10:00 -30°C° 0 mm 2 mps 685 mmHg 85%
    11:00 -28°C° 0 mm 2 mps 685 mmHg 82%
    12:00 -29°C° 0 mm 3 mps 685 mmHg 80%
    13:00 -27°C° 0 mm 3 mps 684 mmHg 78%
    14:00 -29°C° 0 mm 3 mps 684 mmHg 81%
    15:00 -27°C° 0 mm 2 mps 684 mmHg 83%
    16:00 -28°C° 0 mm 2 mps 685 mmHg 86%
    17:00 -28°C° 0 mm 2 mps 685 mmHg 88%
    18:00 -29°C° 0 mm 2 mps 685 mmHg 90%
    19:00 -28°C° 0 mm 1 mps 685 mmHg 91%
    20:00 -29°C° 0 mm 1 mps 685 mmHg 92%
    21:00 -29°C° 0 mm 1 mps 686 mmHg 92%
    22:00 -29°C° 0 mm 1 mps 686 mmHg 92%
    23:00 -29°C° 0 mm 1 mps 686 mmHg 92%

    24 January, Wednesday

    Time Temperature Precipitation Wind Pressure Humidity
    00:00 -29°C° 0 mm 1 mps 686 mmHg 92%
    01:00 -30°C° 0 mm 1 mps 687 mmHg 92%
    02:00 -30°C° 0 mm 1 mps 687 mmHg 92%
    03:00 -30°C° 0 mm 1 mps 687 mmHg 92%
    04:00 -30°C° 0 mm 1 mps 687 mmHg 92%
    05:00 -30°C° 0 mm 1 mps 687 mmHg 92%
    06:00 -30°C° 0 mm 1 mps 688 mmHg 92%
    07:00 -31°C° 0 mm 1 mps 688 mmHg 92%
    08:00 -29°C° 0 mm 1 mps 689 mmHg 89%
    09:00 -28°C° 0 mm 1 mps 689 mmHg 87%
    10:00 -27°C° 0 mm 1 mps 690 mmHg 85%
    11:00 -25°C° 0 mm 1 mps 690 mmHg 82%
    12:00 -27°C° 0 mm 2 mps 690 mmHg 80%
    13:00 -26°C° 0 mm 2 mps 690 mmHg 77%
    14:00 -27°C° 0 mm 2 mps 689 mmHg 80%
    15:00 -24°C° 0 mm 1 mps 689 mmHg 83%
    16:00 -25°C° 0 mm 1 mps 689 mmHg 86%
    17:00 -27°C° 0 mm 1 mps 689 mmHg 87%
    18:00 -28°C° 0 mm 1 mps 690 mmHg 88%
    19:00 -29°C° 0 mm 1 mps 690 mmHg 89%
    20:00 -30°C° 0 mm 1 mps 690 mmHg 88%
    21:00 -30°C° 0 mm 1 mps 690 mmHg 88%
    22:00 -30°C° 0 mm 1 mps 690 mmHg 88%
    23:00 -31°C° 0 mm 1 mps 690 mmHg 88%

    25 January, Thursday

    Time Temperature Precipitation Wind Pressure Humidity
    00:00 -31°C° 0 mm 1 mps 690 mmHg 88%
    01:00 -31°C° 0 mm 1 mps 690 mmHg 87%
    02:00 -31°C° 0 mm 1 mps 690 mmHg 87%
    03:00 -31°C° 0 mm 1 mps 690 mmHg 87%
    04:00 -32°C° 0 mm 1 mps 689 mmHg 87%
    05:00 -32°C° 0 mm 1 mps 689 mmHg 87%
    06:00 -32°C° 0 mm 1 mps 689 mmHg 87%
    07:00 -32°C° 0 mm 1 mps 689 mmHg 87%
    08:00 -30°C° 0 mm 1 mps 690 mmHg 84%
    09:00 -29°C° 0 mm 1 mps 690 mmHg 82%
    10:00 -27°C° 0 mm 1 mps 690 mmHg 79%
    11:00 -25°C° 0 mm 1 mps 690 mmHg 77%
    12:00 -24°C° 0 mm 1 mps 689 mmHg 76%
    13:00 -23°C° 0 mm 1 mps 689 mmHg 74%
    14:00 -23°C° 0 mm 1 mps 689 mmHg 78%
    15:00 -24°C° 0 mm 1 mps 688 mmHg 81%
    16:00 -25°C° 0 mm 1 mps 688 mmHg 85%
    17:00 -27°C° 0 mm 1 mps 688 mmHg 86%
    18:00 -29°C° 0 mm 1 mps 688 mmHg 87%
    19:00 -30°C° 0 mm 1 mps 688 mmHg 88%
    20:00 -30°C° 0 mm 1 mps 688 mmHg 88%
    21:00 -30°C° 0 mm 1 mps 688 mmHg 88%
    22:00 -30°C° 0 mm 1 mps 688 mmHg 88%
    23:00 -30°C° 0 mm 1 mps 688 mmHg 89%

    26 January, Friday

    Time Temperature Precipitation Wind Pressure Humidity
    00:00 -30°C° 0 mm 1 mps 688 mmHg 89%
    01:00 -30°C° 0 mm 1 mps 688 mmHg 90%
    02:00 -30°C° 0 mm 1 mps 688 mmHg 90%
    03:00 -30°C° 0 mm 1 mps 688 mmHg 91%
    04:00 -30°C° 0 mm 1 mps 689 mmHg 92%
    05:00 -30°C° 0 mm 1 mps 689 mmHg 92%
    06:00 -30°C° 0 mm 1 mps 689 mmHg 92%
    07:00 -30°C° 0 mm 1 mps 689 mmHg 93%
    08:00 -29°C° 0 mm 1 mps 689 mmHg 91%
    09:00 -28°C° 0 mm 1 mps 690 mmHg 89%
    10:00 -27°C° 0 mm 1 mps 690 mmHg 87%
    11:00 -25°C° 0 mm 1 mps 690 mmHg 85%
    12:00 -27°C° 0 mm 2 mps 690 mmHg 83%
    13:00 -26°C° 0 mm 2 mps 689 mmHg 81%
    14:00 -27°C° 0 mm 2 mps 689 mmHg 84%
    15:00 -27°C° 0 mm 2 mps 689 mmHg 87%
    16:00 -28°C° 0 mm 2 mps 689 mmHg 89%
    17:00 -28°C° 0 mm 2 mps 690 mmHg 91%
    18:00 -29°C° 0 mm 2 mps 690 mmHg 92%
    19:00 -30°C° 0 mm 2 mps 690 mmHg 93%
    20:00 -30°C° 0 mm 2 mps 690 mmHg 94%
    21:00 -30°C° 0 mm 2 mps 690 mmHg 94%
    22:00 -30°C° 0 mm 2 mps 690 mmHg 94%
    23:00 -30°C° 0 mm 2 mps 690 mmHg 94%
    Show more